Volver al catálogo

GLOBALSTAR M044

ActivoComunicacionesLEO
NORAD 25678·PAYLOAD·🇺🇸 United States

Lanzado Apr 15, 1999 desde Baikonur Cosmodrome

Loading…

Próximos Pases (próximas 24 horas)

TLE

ActualizadoSource: Space-Track

Época: Sep 14, 2026, 10:32 UTC

1 25678U 99019C   26257.43898823 -.00000075  00000-0  12508-3 0  9995
2 25678  51.9949 261.0569 0005953 192.5506 333.8538 11.90266756225416

Sigue GLOBALSTAR M044 en tiempo real con AllMySat

Download on the App Store